Weather History for Driggs, ID

Change the Weather History Date:

Friday, December 28, 2012

  Actual Average (KRXE) Record (KRXE)
Temperature  
Mean Temperature 14 °F 20 °F  
Max Temperature 19 °F 28 °F 44 °F (2002)
Min Temperature 10 °F 12 °F -2 °F (2009)
Degree Days  
Heating Degree Days 50 45  
Month to date heating degree days 1235  
Since 1 July heating degree days 3247  
Cooling Degree Days 0 0  
Month to date cooling degree days 0  
Year to date cooling degree days 208  
Moisture  
Dew Point 11 °F    
Average Humidity 85    
Maximum Humidity 93    
Minimum Humidity 74    
Precipitation  
Precipitation 0.00 in 0.05 in 0.47 in (2005)
Month to date precipitation 0.93  
Year to date precipitation 12.96  
Sea Level Pressure  
Sea Level Pressure 30.13 in    
Wind  
Wind Speed 2 mph (NNE)    
Max Wind Speed 9 mph    
Max Gust Speed -    
Visibility 10 miles    
Events Snow    
T = Trace of Precipitation, MM = Missing Value Source: NWS Daily Summary

Daily Weather History Graph

Daily Weather History Graph

Search for Another Location

Airport:

Trip Planner

Search our weather history database for the weather conditions in past years. The results will help you decide how hot, cold, wet, or windy it might be!

Date:

Astronomy

Dec. 28, 2012 Rise Set
Actual Time 7:57 AM MST 4:54 PM MST
Civil Twilight 7:24 AM MST 5:27 PM MST
Nautical Twilight 6:48 AM MST 6:04 PM MST
Astronomical Twilight 6:13 AM MST 6:39 PM MST
Moon 5:37 PM MST (12/28) 7:52 AM MST (12/28)
Length of Visible Light 10h 02m
Length of Day
8h 57m
Full, 100% of the Moon is Illuminated
Dec 28
Full
Jan 4
Last Quarter
Jan 11
New
Jan 18
First Quarter
Jan 26
Full

Hourly Weather History & Observations

Time (MST) Temp. Windchill Dew Point Humidity Pressure Visibility Wind Dir Wind Speed Gust Speed Precip Events Conditions
12:56 AM 14.0 °F - 12.0 °F 92% 30.07 in 10.0 mi Calm Calm - 0.00 in Snow Light Snow
1:03 AM 14.0 °F - 12.2 °F 93% 29.98 in 10.0 mi Calm Calm - 0.00 in Snow Light Snow
1:43 AM 15.8 °F - 12.2 °F 86% 29.99 in 7.0 mi Calm Calm - 0.00 in Snow Light Snow
1:56 AM 15.1 °F - 12.0 °F 88% 30.10 in 6.0 mi Calm Calm - 0.00 in Snow Light Snow
2:21 AM 15.8 °F - 12.2 °F 86% 30.00 in 8.0 mi Calm Calm - 0.00 in Snow Light Snow
2:56 AM 14.0 °F - 11.1 °F 88% 30.12 in 8.0 mi Calm Calm - 0.00 in Snow Light Snow
3:05 AM 14.0 °F - 10.4 °F 86% 30.00 in 10.0 mi Calm Calm - 0.00 in Snow Light Snow
3:56 AM 15.1 °F - 11.1 °F 84% 30.13 in 10.0 mi Calm Calm - 0.00 in   Overcast
4:05 AM 14.0 °F - 10.4 °F 86% 30.01 in 10.0 mi Calm Calm - N/A   Overcast
4:18 AM 12.2 °F - 10.4 °F 92% 30.01 in 10.0 mi Calm Calm - 0.00 in Snow Light Snow
4:56 AM 14.0 °F - 11.1 °F 88% 30.13 in 10.0 mi Calm Calm - 0.00 in Snow Light Snow
5:45 AM 14.0 °F 6.5 °F 10.4 °F 86% 30.01 in 10.0 mi East 4.6 mph - 0.00 in   Overcast
5:56 AM 14.0 °F 8.2 °F 11.1 °F 88% 30.14 in 10.0 mi ENE 3.5 mph - 0.00 in   Overcast
6:56 AM 15.1 °F - 11.1 °F 84% 30.14 in 10.0 mi Calm Calm - 0.00 in Snow Light Snow
7:40 AM 15.8 °F - 12.2 °F 86% 30.03 in 10.0 mi Calm Calm - 0.00 in Snow Light Snow
7:56 AM 14.0 °F 8.2 °F 11.1 °F 88% 30.15 in 10.0 mi East 3.5 mph - 0.00 in Snow Light Snow
8:38 AM 12.2 °F 6.1 °F 10.4 °F 92% 30.03 in 10.0 mi West 3.5 mph - 0.00 in Snow Light Snow
8:56 AM 14.0 °F 6.5 °F 11.1 °F 88% 30.17 in 10.0 mi NW 4.6 mph - 0.00 in Snow Light Snow
9:22 AM 12.2 °F - 10.4 °F 92% 30.05 in 10.0 mi Calm Calm - 0.00 in Snow Light Snow
9:32 AM 14.0 °F - 10.4 °F 86% 30.06 in 10.0 mi Calm Calm - 0.00 in Snow Light Snow
9:56 AM 14.0 °F - 11.1 °F 88% 30.20 in 10.0 mi Calm Calm - 0.00 in Snow Light Snow
10:08 AM 15.8 °F - 10.4 °F 79% 30.07 in 10.0 mi Calm Calm - 0.00 in Snow Light Snow
10:56 AM 19.0 °F 12.3 °F 13.1 °F 78% 30.19 in 10.0 mi NE 4.6 mph - 0.00 in Snow Light Snow
11:36 AM 19.4 °F - 14.0 °F 80% 30.08 in 10.0 mi Calm Calm - 0.00 in   Overcast
11:56 AM 19.0 °F 9.0 °F 14.0 °F 81% 30.19 in 10.0 mi NNE 8.1 mph - 0.00 in Snow Light Snow
12:02 PM 19.4 °F 9.5 °F 14.0 °F 80% 30.07 in 10.0 mi NNE 8.1 mph - 0.00 in Snow Light Snow
12:17 PM 19.4 °F 9.5 °F 14.0 °F 80% 30.07 in 10.0 mi North 8.1 mph - 0.00 in Snow Light Snow
12:56 PM 19.0 °F 8.2 °F 14.0 °F 81% 30.18 in 10.0 mi North 9.2 mph - 0.00 in   Overcast
1:21 PM 19.4 °F 8.6 °F 14.0 °F 80% 30.06 in 10.0 mi NNE 9.2 mph - N/A   Overcast
1:56 PM 18.1 °F 7.1 °F 13.1 °F 81% 30.18 in 10.0 mi NNE 9.2 mph - N/A   Mostly Cloudy
2:21 PM 19.4 °F 9.5 °F 12.2 °F 74% 30.07 in 10.0 mi North 8.1 mph - N/A   Mostly Cloudy
2:30 PM 19.4 °F 9.5 °F 12.2 °F 74% 30.07 in 10.0 mi North 8.1 mph - N/A   Overcast
2:56 PM 17.1 °F 6.6 °F 11.1 °F 77% 30.21 in 10.0 mi North 8.1 mph - 0.00 in   Overcast
3:26 PM 19.4 °F 9.5 °F 14.0 °F 80% 30.09 in 10.0 mi North 8.1 mph - N/A   Overcast
3:44 PM 17.6 °F 6.4 °F 12.2 °F 79% 30.10 in 10.0 mi North 9.2 mph - N/A   Overcast
3:56 PM 18.1 °F 8.9 °F 12.0 °F 77% 30.22 in 10.0 mi North 6.9 mph - N/A   Overcast
4:15 PM 17.6 °F 7.3 °F 12.2 °F 79% 30.11 in 10.0 mi North 8.1 mph - N/A   Overcast
4:56 PM 16.2 °F 6.5 °F 13.1 °F 88% 30.25 in 10.0 mi NNE 6.9 mph - N/A   Overcast
5:56 PM 13.1 °F 5.4 °F 9.1 °F 84% 30.26 in 10.0 mi ENE 4.6 mph - N/A   Overcast
6:56 PM 13.1 °F 5.4 °F 10.0 °F 88% 30.28 in 10.0 mi SW 4.6 mph - 0.00 in   Overcast
7:18 PM 12.2 °F - 10.4 °F 92% 30.14 in 10.0 mi Calm Calm - 0.00 in Snow Light Snow
7:56 PM 12.0 °F - 9.1 °F 88% 30.29 in 10.0 mi Calm Calm - 0.00 in   Overcast
8:56 PM 12.0 °F - 9.1 °F 88% 30.29 in 10.0 mi Calm Calm - N/A   Overcast
9:17 PM 12.2 °F 6.1 °F 8.6 °F 85% 30.14 in 10.0 mi SE 3.5 mph - 0.00 in Snow Light Snow
9:40 PM 10.4 °F 4.0 °F 8.6 °F 92% 30.14 in 10.0 mi ESE 3.5 mph - 0.00 in   Overcast
9:56 PM 11.1 °F 3.1 °F 8.1 °F 87% 30.30 in 10.0 mi East 4.6 mph - 0.00 in   Overcast
10:19 PM 12.2 °F 6.1 °F 8.6 °F 85% 30.15 in 10.0 mi SW 3.5 mph - N/A   Overcast
10:56 PM 12.0 °F - 10.0 °F 92% 30.28 in 10.0 mi Calm Calm - N/A   Overcast
11:09 PM 12.2 °F - 10.4 °F 92% 30.16 in 10.0 mi Calm Calm - N/A   Overcast
11:17 PM 12.2 °F - 10.4 °F 92% 30.16 in 10.0 mi Calm Calm - N/A   Overcast
11:56 PM 12.0 °F - 10.0 °F 92% 30.28 in 10.0 mi Calm Calm - 0.00 in Snow Light Snow